Location: Recife
(8.0585°S, 34.8848°W)
Time: 09:50:46
(UTC-03:00)

Courier 1B Rocket - Pass Details

Date: 22 April 2026
Orbit: 920 x 1201 km, 28.2° (Epoch: 13 May)

Event Time Altitude Azimuth Distance (km) Brightness Sun altitude
Rises 14:43:59 0° 285° (WNW) 4,060 9.3 34.9°
Reaches altitude 10° 14:49:46 10° 319° (NW) 3,119 8.7 33.6°
Maximum altitude 14:51:41 11° 333° (NNW) 3,047 8.4 33.1°
Drops below altitude 10° 14:53:36 10° 348° (NNW) 3,119 8.2 32.7°
Sets 14:59:25 0° 21° (NNE) 4,060 8.2 31.3°
